Showing default

COSMOS 2148, 21304

Orbit data source: Space-Track

COSMOS 2148, 21304 is a payload satellite owned by UNKS RF (CIS) in LEO that was launched on Thu, 16 May 1991 UTC via a TSIKLON-3 launch vehicle from the Plesetsk Missile And Space Complex (PKMTR). Payload-class satellites include a variety of spacecraft equipped with specific instruments for various scientific and technological missions. These include communications satellites like Starlink; space stations such as the ISS; scientific satellites like the Hubble; Earth observation satellites from companies like Planet Labs, Umbra, and HawkEye 360; GPS; miniature CubeSats for education and research; and military/defense satellites.

Loading next visibility...
Identifier
21304, 1991-033F
Orbit
LEO
Country
Flag of CISCIS
Related business
Manufacturer
NPO PM
Mission
Defense Communications
Bus & Motor
STRELA-3, Unknown motor
Mass
225 kg wet, 225 kg dry
Launch date (UTC)
1991-05-16 (35 years ago)
Launch vehicle
TSIKLON-3
Launch site
Plesetsk Missile And Space Complex (PKMTR)
Object type
Payload
Rocket body
Debris
Shape & HBR
Cyl, 0.8 m
Radar Cross Section
1.257 m², Large (>1 m²)

Expand to show TLE details & history
Last TLE update: 2 days ago

TLE from 2 days ago
0 COSMOS 2148
1 21304U 91033F   26171.35346380  .00000035  00000-0  12972-3 0  9997
2 21304  82.5730 267.9941 0022194 307.8424 114.7241 12.65994310621505
Epoch: 2026-06-20T08:28Z
TLE epoch observation values (Epoch: 2026-06-20T08:28:59.272Z)
Latitude
61.96217°
Longitude
-113.72503°
Altitude
1,416.128 km
Speed
7.155 km/s
True Right ascension
18h 48m 21s
True Declination
61° 49' 53"
Sunlit
Object was in daylight at epoch
Visualization orbit readout
Latitude
Unknown
Longitude
Unknown
Altitude
Unknown
Speed
Unknown
Apparent Right ascension
Unknown
Apparent Declination
Unknown
Sunlit
N/A
Visualization observer readout
Local Sidereal Time
00:50:23
Azimuth
Unknown
Elevation
Unknown
Doppler factor
Unknown
Orbital elements
Apogee altitude
1,412.869 km
Perigee altitude
1,378.363 km
Semi-major axis
7,773.753 km
Eccentricity
0.00222
Inclination
82.573°
RAAN
267.9941°
Arg. of periapsis
307.8424°
True anomaly
114.95484°
Mean anomaly
114.7241°
Eccentric anomaly
114.8395°
Mean motion
3.16663 °/min
Orbital period
113.69 mins
BSTAR
0.00012972
Loading maneuver chart data...
Computing Atmospheric mass density...
Loading historical data...
Loading historical data...
Loading historical data...
Loading historical data...
Loading historical data...
Loading historical data...
Loading historical data...

Documentation

Showing up to 5 results
|